Regional Weather Roundup
Issued by NWS

Home | Current Version | Previous Version | Text Only | Print | Product List | Glossary Off
Versions: 1 2 3 4 5 6 7 8 9 10 11 12 13 14 15 16 17 18 19 20 21 22 23 24 25 26 27 28 29 30 31 32 33 34 35 36 37 38 39 40 41 42 43 44 45 46 47 48 49 50

000
ASUS45 KSLC 230210
RWRUT

UTAH REGIONAL WEATHER ROUNDUP
NATIONAL WEATHER SERVICE SALT LAKE CITY UT
700 PM MST SAT NOV 22 2014

UTZ001>011-023>025-230300-

NORTHERN UTAH

CITY           SKY/WX    TMP DP  RH WIND       PRES   REMARKS
BRIGHAM CITY   CLOUDY    37  32  82 CALM      29.87R
HILL AFB       CLOUDY    36  36 100 SW13      29.86R WCI  27
LOGAN          MOCLDY    34  32  92 E6        29.82R WCI  29
OGDEN          CLOUDY    37  35  92 SW10      29.85R WCI  30
PROVO AIRPORT  LGT RAIN  36  32  87 W14       29.87R WCI  27
SALT LAKE CITY CLOUDY    35  34  96 S6        29.85S WCI  30
VERNAL         LGT RAIN  35  33  92 CALM      29.78R
WENDOVER       MOCLDY    43  28  56 NW20      29.90R
HEBER CITY     MIX PCPN  34  32  93 E7        29.83S WCI  28
WEST JORDAN    CLOUDY    34  34 100 SW6       29.87  WCI  29

$$

UTZ012>022-026-027-230300-

SOUTHERN/CENTRAL UTAH

CITY           SKY/WX    TMP DP  RH WIND       PRES   REMARKS
BLANDING       MOCLDY    36  24  61 N7        29.94F WCI  31
BRYCE CANYON   MOCLDY    39  18  42 SW18G26   29.89F WCI  30
CEDAR CITY     PTCLDY    49  20  31 S17G28    29.84F
DELTA          CLOUDY    39  36  91 N29G37    29.89R WCI  27
MILFORD        MOCLDY    46  23  40 S14       29.84R
MOAB/CYNLANDS  CLOUDY    39  16  39 S6        29.75F WCI  35
PRICE          LGT SNOW  32  30  92 E6        29.81F FOG     WCI  26
ST GEORGE      CLOUDY    52  21  30 CALM      29.91R
KANAB          MOCLDY    52  21  30 SW13      29.94S

$$

REGIONAL REPORTS     COLORADO/ARIZONA

CITY           SKY/WX    TMP DP  RH WIND       PRES   REMARKS
CRAIG, CO      CLOUDY    40  27  59 W15       29.73F WCI  32
GRAND JUNCTION MOCLDY    35  33  92 N5        29.79F WCI  31
RIFLE          LGT RAIN  36  33  89 N5        29.82F WCI  32
MONTROSE       MOCLDY    41  26  55 NW7       29.83F
CORTEZ         MOCLDY    38  24  57 CALM      29.89F
PAGE, AZ       NOT AVBL
GRAND CANYON   CLEAR     43  15  32 SW10      30.00S
KINGMAN        CLEAR     48  20  32 E7        29.96S
FLAGSTAFF      CLEAR     41  15  35 W6        30.03S

$$

REGIONAL REPORTS    NEVADA/IDAHO/WYOMING

CITY           SKY/WX    TMP DP  RH WIND       PRES   REMARKS
LAS VEGAS, NV  CLEAR     64  30  27 S7        29.82S
ELY            FLURRIES  35  32  88 NW10      29.98R WCI  27
ELKO           MIX PCPN  36  34  92 SW10      29.96R WCI  28
POCATELLO, ID  MOCLDY    36  33  89 SW23      29.79R WCI  24
BURLEY         CLEAR     36  30  79 W18G25    29.83R WCI  26
EVANSTON, WY   CLOUDY    28  25  88 SW16      29.78F WCI  16
ROCK SPRINGS   CLOUDY    31  27  85 SW23G33   29.71S WCI  18
KEMMERER       CLOUDY    28  27  93 W10       29.74R WCI  19

$$


USA.gov is the U.S. government's official web portal to all federal, state and local government web resources and services.